Alexandria, MN

5:07 AM CST on January 23, 2017 (GMT -0600)
Chandler

Weather History for KAXN - November, 2012

Change the Weather History Date:

Friday, November 23, 2012

  Actual Average Record
Temperature  
Mean Temperature 16 °F -  
Max Temperature 19 °F 29 °F 50 °F (2006)
Min Temperature 12 °F 16 °F -12 °F (1950)
Degree Days  
Heating Degree Days 50    
Moisture  
Dew Point 9 °F    
Average Humidity 77    
Maximum Humidity 81    
Minimum Humidity 71    
Precipitation  
Precipitation 0.00 in - - ()
Sea Level Pressure  
Sea Level Pressure 30.31 in    
Wind  
Wind Speed 24 mph (NW)    
Max Wind Speed 34 mph    
Max Gust Speed 46 mph    
Visibility 6 miles    
Events Snow    
Averages and records for this station are not official NWS values.
T = Trace of Precipitation, MM = Missing Value Source: NWS Daily Summary

Daily Weather History Graph

Daily Weather History Graph

Search for Another Location

Airport or City:

Trip Planner

Search our weather history database for the weather conditions in past years. The results will help you decide how hot, cold, wet, or windy it might be!

Date:

Astronomy

Nov. 23, 2012 Rise Set
Actual Time 7:33 AM CST 4:42 PM CST
Civil Twilight 7:00 AM CST 5:15 PM CST
Nautical Twilight 6:23 AM CST 5:52 PM CST
Astronomical Twilight 5:47 AM CST 6:28 PM CST
Moon 2:08 PM CST 2:40 AM CST
Length of Visible Light 10h 15m
Length of Day
9h 09m
Waxing Gibbous, 80% of the Moon is Illuminated
Nov 23
Waxing Gibbous
Nov 28
Full
Dec 6
Last Quarter
Dec 13
New
Dec 19
First Quarter

Hourly Weather History & Observations

Time (CST) Temp. Windchill Dew Point Humidity Pressure Visibility Wind Dir Wind Speed Gust Speed Precip Events Conditions
12:04 AM 17.6 °F -1.6 °F 12.2 °F 79% 30.09 in 4.0 mi NW 28.8 mph 35.7 mph 0.00 in   Haze
12:15 AM 17.6 °F -3.1 °F 12.2 °F 79% 30.09 in 1.8 mi NW 34.5 mph 46.0 mph 0.00 in Snow Light Snow
12:24 AM 17.6 °F -2.2 °F 10.4 °F 73% 30.10 in 1.2 mi NW 31.1 mph 46.0 mph 0.00 in Snow Light Snow
12:39 AM 15.8 °F -4.1 °F 10.4 °F 79% 30.10 in 2.0 mi NW 28.8 mph 42.6 mph 0.00 in Snow Light Snow
12:50 AM 15.8 °F -1.5 °F 10.4 °F 79% 30.11 in 5.0 mi NW 20.7 mph 38.0 mph 0.00 in   Haze
12:53 AM 16.0 °F -3.2 °F 10.0 °F 77% 30.18 in 5.0 mi NW 26.5 mph 36.8 mph 0.00 in   Haze
1:06 AM 15.8 °F -3.1 °F 10.4 °F 79% 30.12 in 2.0 mi NW 25.3 mph 39.1 mph 0.00 in Snow Light Snow
1:12 AM 15.8 °F -3.1 °F 10.4 °F 79% 30.12 in 1.2 mi NW 25.3 mph 35.7 mph 0.00 in Snow Light Snow
1:18 AM 15.8 °F -2.7 °F 10.4 °F 79% 30.12 in 2.0 mi NNW 24.2 mph 33.4 mph 0.00 in Snow Light Snow
1:28 AM 15.8 °F -2.3 °F 8.6 °F 73% 30.13 in 4.0 mi NW 23.0 mph 34.5 mph 0.00 in Snow Light Snow
1:36 AM 14.0 °F -7.7 °F 8.6 °F 79% 30.14 in 1.8 mi NW 33.4 mph 41.4 mph 0.00 in Snow Light Snow
1:47 AM 12.2 °F -7.9 °F 6.8 °F 79% 30.15 in 3.0 mi NW 25.3 mph 36.8 mph 0.00 in Snow Light Snow
1:53 AM 12.9 °F -7.3 °F 7.0 °F 77% 30.23 in 4.0 mi NW 26.5 mph 36.8 mph 0.00 in   Overcast
2:53 AM 12.9 °F -5.3 °F 8.1 °F 81% 30.27 in 3.0 mi NW 20.7 mph 38.0 mph 0.00 in Snow Light Snow
3:53 AM 14.0 °F -3.4 °F 9.0 °F 80% 30.28 in 4.0 mi NW 19.6 mph 31.1 mph 0.00 in Snow Light Snow
4:53 AM 15.1 °F -2.9 °F 9.0 °F 77% 30.31 in 5.0 mi NW 21.9 mph 31.1 mph 0.00 in Snow Light Snow
5:53 AM 15.1 °F -3.3 °F 9.0 °F 77% 30.34 in 4.0 mi NW 23.0 mph 31.1 mph 0.00 in Snow Light Snow
6:03 AM 15.8 °F -2.7 °F 8.6 °F 73% 30.27 in 5.0 mi NW 24.2 mph 32.2 mph 0.00 in Snow Light Snow
6:53 AM 15.1 °F -3.7 °F 9.0 °F 77% 30.37 in 6.0 mi NW 24.2 mph 33.4 mph 0.00 in Snow Light Snow
7:53 AM 15.1 °F -2.5 °F 10.0 °F 80% 30.40 in 8.0 mi NW 20.7 mph 27.6 mph 0.00 in   Overcast
8:53 AM 16.0 °F -1.7 °F 10.0 °F 77% 30.42 in 5.0 mi NW 21.9 mph 28.8 mph 0.00 in Snow Light Snow
9:53 AM 16.0 °F -0.4 °F 10.0 °F 77% 30.44 in 6.0 mi NW 18.4 mph 27.6 mph 0.00 in Snow Light Snow
10:53 AM 18.0 °F 1.3 °F 10.9 °F 74% 30.46 in 10.0 mi NW 20.7 mph 26.5 mph 0.00 in   Overcast
11:10 AM 17.6 °F 0.9 °F 10.4 °F 73% 30.37 in 7.0 mi NW 20.7 mph - N/A   Overcast
11:53 AM 18.0 °F 1.7 °F 10.9 °F 74% 30.46 in 6.0 mi WNW 19.6 mph - 0.00 in   Haze
12:53 PM 19.0 °F 4.0 °F 10.9 °F 71% 30.45 in 10.0 mi NW 17.3 mph - N/A   Overcast
1:53 PM 18.0 °F 2.2 °F 10.9 °F 74% 30.45 in 10.0 mi NW 18.4 mph 25.3 mph N/A   Overcast
2:53 PM 16.0 °F 0.1 °F 10.0 °F 77% 30.46 in 10.0 mi NW 17.3 mph 26.5 mph N/A   Overcast
3:53 PM 16.0 °F 1.1 °F 9.0 °F 74% 30.48 in 9.0 mi NW 15.0 mph - 0.00 in   Overcast
4:53 PM 15.1 °F 0.5 °F 8.1 °F 74% 30.48 in 8.0 mi NW 13.8 mph - 0.00 in Snow Light Snow
6:35 PM 14.0 °F 2.9 °F 8.6 °F 79% 30.37 in 6.0 mi NNW 8.1 mph - 0.00 in Snow Light Snow
6:53 PM 14.0 °F 1.2 °F 9.0 °F 80% 30.48 in 10.0 mi NNW 10.4 mph - 0.00 in   Overcast
7:53 PM 14.0 °F -2.0 °F 8.1 °F 77% 30.47 in 10.0 mi NNW 16.1 mph - 0.00 in   Overcast
8:53 PM 12.0 °F -2.0 °F 7.0 °F 80% 30.45 in 10.0 mi North 11.5 mph - N/A   Scattered Clouds
9:24 PM 12.2 °F 0.7 °F 6.8 °F 79% 30.35 in 10.0 mi NNW 8.1 mph - N/A   Mostly Cloudy
9:53 PM 12.9 °F 0.7 °F 8.1 °F 81% 30.44 in 10.0 mi NW 9.2 mph - N/A   Overcast
10:53 PM 12.9 °F 2.6 °F 8.1 °F 81% 30.44 in 10.0 mi NW 6.9 mph - N/A   Overcast